User: anonymous   Login
Location: Shenandoah County Park
(38.9356°N, 78.4524°W)
Time: 13:29:18
(UTC-04:00)
Language:

A-11 Canister half - Orbit

View from above orbital plane
View from above orbital plane
View from above satellite
View from above satellite

Ground track
Ground track

The orbit data is extracted from the following two-line orbital elements,

1    51U 60009C   24196.02737991 -.00000001  00000-0  80547-3 0  9990
2    51  47.2141  65.1142 0106487 266.3024  92.5582 12.18329408845438
Epoch (UTC): 14 July 2024 00:39:25
Eccentricity: 0.0106487
inclination: 47.2141°
perigee height: 1515 km
apogee height: 1685 km
right ascension of ascending node: 65.1142°
argument of perigee: 266.3024°
revolutions per day: 12.18329408
mean anomaly at epoch: 92.5582°
orbit number at epoch: 84543

The dashed part of the orbit path shows where the satellite is in the earth's shadow,  

DLR